This demonstration page uses our WeatherBlox Daily Observations layout. Learn more.

Left ArrowRight Arrow

44.8408, -93.29828

Hourly Observations for June 9, 2017

Temp ( °F °C ) Dew Point ( °F °C ) Humidity (%) Winds ( mph kmh ) Pressure ( in mb ) Visibility ( mi km ) Precip ( " mm )
12:53 am 00:53 Mostly Clear 71 21.7 56 13.3 59 59 NNE 7 11 29.81 1009 10 16 0.00 0.00
1:53 am 01:53 Mostly Clear 70 21.1 57 13.9 64 64 E 7 11 29.80 1009 10 16 0.00 0.00
2:53 am 02:53 Mostly Clear 68 20 55 12.8 63 63 NE 5 7 29.79 1009 10 16 0.00 0.00
3:53 am 03:53 Mostly Clear 67 19.4 55 12.8 66 66 NNE 5 7 29.80 1009 10 16 0.00 0.00
4:53 am 04:53 Mostly Clear 66 18.9 54 12.2 65 65 ENE 5 7 29.80 1009 10 16 0.00 0.00
5:53 am 05:53 Mostly Sunny 65 18.3 54 12.2 68 68 ENE 6 9 29.81 1009 10 16 0.00 0.00
6:53 am 06:53 Sunny 66 18.9 54 12.2 65 65 ENE 7 11 29.82 1010 10 16 0.00 0.00
7:53 am 07:53 Mostly Sunny 68 20 54 12.2 61 61 ENE 6 9 29.83 1010 10 16 0.00 0.00
8:53 am 08:53 Mostly Sunny 71 21.7 55 12.8 57 57 E 5 7 29.83 1010 10 16 0.00 0.00
9:53 am 09:53 Mostly Sunny 73 22.8 56 13.3 55 55 E 6 9 29.82 1010 10 16 0.00 0.00
10:53 am 10:53 Mostly Sunny 76 24.4 57 13.9 52 52 E 10 17 29.81 1009 10 16 0.00 0.00
11:53 am 11:53 Mostly Sunny 79 26.1 56 13.3 45 45 SE 9 15 29.80 1009 10 16 0.00 0.00
12:53 pm 12:53 Mostly Sunny 81 27.2 58 14.4 45 45 ESE 9 15 29.78 1009 10 16 0.00 0.00
1:53 pm 13:53 Mostly Sunny 82 27.8 57 13.9 42 42 ESE 7 11 29.76 1008 10 16 0.00 0.00
2:53 pm 14:53 Partly Cloudy 83 28.3 57 13.9 41 41 S 9 15 29.73 1007 10 16 0.00 0.00
3:53 pm 15:53 Mostly Cloudy 85 29.4 57 13.9 39 39 SE 9 15 29.71 1006 10 16 0.00 0.00
4:53 pm 16:53 Mostly Cloudy 85 29.4 57 13.9 39 39 SE 8 13 29.69 1005 10 16 0.00 0.00
5:53 pm 17:53 Mostly Cloudy 86 30 57 13.9 37 37 ESE 14 22 29.66 1005 10 16 0.00 0.00
6:53 pm 18:53 Mostly Cloudy 84 28.9 57 13.9 40 40 E 17 28 29.64 1004 10 16 0.00 0.00
7:53 pm 19:53 Mostly Cloudy 82 27.8 57 13.9 42 42 SE 16 26 29.63 1003 10 16 0.00 0.00
8:53 pm 20:53 Mostly Cloudy 80 26.7 58 14.4 47 47 ESE 12 19 29.62 1003 10 16 0.00 0.00
9:53 pm 21:53 Mostly Cloudy 78 25.6 58 14.4 50 50 SE 15 24 29.61 1003 10 16 0.00 0.00
10:53 pm 22:53 Mostly Cloudy 77 25 58 14.4 52 52 SSE 15 24 29.59 1002 10 16 0.00 0.00
11:53 pm 23:53 Mostly Cloudy 76 24.4 59 15 56 56 SE 10 17 29.58 1002 10 16 0.00 0.00

Powered by AerisWeather